Observations for BRIZE NORTON RA, United Kingdom (EGVN)

EGVN 280450Z 05008KT 4000 BR OVC004 14/13 Q0999 BECMG 5000 BKN005   
EGVN 280450Z 05008KT 4000 BR OVC004 14/13 Q0999 YLO2 BECMG 5000 BKN005 YLO1
EGVN 280350Z 05008KT 4000 BR OVC004 14/13 Q0999 TEMPO BKN006
EGVN 280350Z 05008KT 4000 BR OVC004 14/13 Q0999 YLO2 TEMPO BKN006 YLO1
EGVN 280250Z 04008KT 4000 BR OVC005 14/13 Q0999 TEMPO BKN004
EGVN 280250Z 04008KT 4000 BR OVC005 14/13 Q0999 YLO1 TEMPO BKN004 YLO2
EGVN 280150Z 06007KT 4000 BR FEW003 OVC005 14/14 Q1000 TEMPO SCT003 
EGVN 280150Z 06007KT 4000 BR FEW003 OVC005 14/14 Q1000 YLO1 TEMPO SCT003 YLO2
EGVN 280050Z 07006KT 4500 -RA OVC004 14/14 Q1001 RERA TEMPO BKN005  
EGVN 280050Z 07006KT 4500 -RA OVC004 14/14 Q1001 RERA YLO2 TEMPO BKN005 YLO1
EGVN 272350Z 06007KT 3000 RA BKN004 15/14 Q1001 TEMPO BKN005
EGVN 272350Z 06007KT 3000 RA BKN004 15/14 Q1001 YLO2 TEMPO BKN005 YLO1
EGVN 272250Z 07007KT 3000 RA BKN004 OVC015 15/14 Q1002 TEMPO BKN005 
EGVN 272250Z 07007KT 3000 RA BKN004 OVC015 15/14 Q1002 YLO2 TEMPO BKN005 YLO1
EGVN 272150Z 07008KT 3500 RA OVC005 15/15 Q1002 TEMPO BKN004
EGVN 272150Z 07008KT 3500 RA OVC005 15/15 Q1002 YLO1 TEMPO BKN004 YLO2
EGVN 272050Z 07008KT 5000 -RA OVC006 16/15 Q1002 TEMPO 4000 RA  
EGVN 272050Z 07008KT 5000 -RA OVC006 16/15 Q1002 YLO1 TEMPO 4000 RA YLO1
EGVN 271950Z 07008KT 7000 -DZ OVC007 16/15 Q1003 TEMPO 4000 RA BKN006   
EGVN 271950Z 07008KT 7000 -DZ OVC007 16/15 Q1003 GRN TEMPO 4000 RA BKN006 YLO1
EGVN 271850Z 08008KT 9000 -RA FEW009 OVC037 17/15 Q1003 BLU TEMPO 4000 RA SCT009 GRN
EGVN 271850Z 08008KT 9000 -RA FEW009 OVC037 17/15 Q1003 TEMPO 4000 RA SCT009
EGVN 271750Z 09007KT 9999 -RA FEW011 BKN018 17/15 Q1003 WHT NOSIG   
EGVN 271750Z 09007KT 9999 -RA FEW011 BKN018 17/15 Q1003 NOSIG
EGVN 271650Z 08008KT 9999 -RA FEW024 BKN035 18/14 Q1003 BLU BECMG BKN020 WHT
EGVN 271650Z 08008KT 9999 -RA FEW024 BKN035 18/14 Q1003 BECMG BKN020
EGVN 271550Z 08009KT 9999 FEW023 SCT036 BKN045 19/14 Q1004 BLU BECMG SCT023 WHT 
EGVN 271550Z 08009KT 9999 FEW023 SCT036 BKN045 19/14 Q1004 BECMG SCT023
EGVN 271450Z 08009KT 9999 FEW023 BKN030 19/13 Q1005 TEMPO SCT020
EGVN 271450Z 08009KT 9999 FEW023 BKN030 19/13 Q1005 BLU TEMPO SCT020 WHT
EGVN 271350Z 07006KT 9999 FEW035 BKN038 BKN170 20/12 Q1005 BLU NOSIG
EGVN 271350Z 07006KT 9999 FEW035 BKN038 BKN170 20/12 Q1005 NOSIG
EGVN 271250Z 12005KT 9999 FEW035 BKN037 OVC170 19/10 Q1005 BLU NOSIG
EGVN 271250Z 12005KT 9999 FEW035 BKN037 OVC170 19/10 Q1005 NOSIG
EGVN 271150Z 10004KT 9999 FEW036 BKN040 19/09 Q1006 NOSIG   
EGVN 271150Z 10004KT 9999 FEW036 BKN040 19/09 Q1006 BLU NOSIG
EGVN 271050Z 14005KT 9999 BKN038 19/09 Q1007 NOSIG  
EGVN 271050Z 14005KT 9999 BKN038 19/09 Q1007 BLU NOSIG
EGVN 270950Z 13004KT 9999 OVC042 19/08 Q1007 NOSIG  
EGVN 270950Z 13004KT 9999 OVC042 19/08 Q1007 BLU NOSIG
EGVN 270850Z 14007KT CAVOK 18/07 Q1007 NOSIG
EGVN 270850Z 14007KT CAVOK 18/07 Q1007 BLU NOSIG
EGVN 270750Z 07006KT 9999 FEW045 SCT170 17/09 Q1007 BLU NOSIG   
EGVN 270750Z 07006KT 9999 FEW045 SCT170 17/09 Q1007 NOSIG
EGVN 270650Z 07006KT 9999 BKN042 15/09 Q1008 BLU NOSIG  
EGVN 270650Z 07006KT 9999 BKN042 15/09 Q1008 NOSIG
EGVN 270550Z 07005KT 9999 OVC045 15/09 Q1008 NOSIG  
EGVN 270550Z 07005KT 9999 OVC045 15/09 Q1008 BLU NOSIG
EGVN 270450Z 08004KT 9999 SCT040 BKN060 14/10 Q1009 NOSIG   
EGVN 270450Z 08004KT 9999 SCT040 BKN060 14/10 Q1009 BLU NOSIG